Location: ČR
(50.0000°N, 15.0000°E)
Time: 13:43:40
(UTC+00:00)

Explorer 7 - Pass Details

Date: 22 October 2021
Orbit: 483 x 675 km, 50.3° (Epoch: 27 November)

Event Time Altitude Azimuth Distance (km) Brightness Sun altitude
Rises 03:20:22 0° 284° (WNW) 2,913 - -22.0°
Reaches altitude 10° 03:23:04 10° 269° (W) 2,034 - -21.5°
Maximum altitude 03:26:37 21° 220° (SW) 1,451 - -21.0°
Exits shadow 03:28:06 19° 195° (SSW) 1,580 8.9 -20.7°
Drops below altitude 10° 03:30:14 10° 171° (S) 2,084 9.8 -20.4°
Sets 03:33:03 0° 156° (SSE) 3,006 10.8 -19.9°
